Location: Newark
(9.4667°S, 159.8167°E)
Time: 07:27:11
(UTC+00:00)

Courier 1B Rocket - Pass Details

Date: 29 November 2019
Orbit: 920 x 1202 km, 28.2° (Epoch: 09 December)

Event Time Altitude Azimuth Distance (km) Brightness Sun altitude
Rises 10:42:30 0° 279° (W) 4,051 8.6 -42.6°
Reaches altitude 10° 10:45:29 10° 272° (W) 3,111 8.0 -43.1°
Enters shadow 10:50:21 34° 243° (WSW) 1,860 6.7 -44.0°
Maximum altitude 10:52:48 43° 203° (SSW) 1,634 - -44.5°
Drops below altitude 10° 11:00:08 10° 134° (SE) 3,114 - -45.8°
Sets 11:03:08 0° 127° (SE) 4,055 - -46.3°
